When you browse on this site, cookies collect data to enhance your experience and personalize the content and advertising you see.
Visit our Privacy Policy to learn more. By continuing to use the site, you agree to this use of cookies and data.
  • In Hungary
  • List of Countries
  • For 7 days
  • Water Temperature
  • Weather Map
  • News
  • Weather Widgets
  • user-avatar
    Login

    Hourly Weather Varese

    Today, 10 December, Tuesday

    Time Temperature Precipitation Wind Pressure Humidity
    00:00 +4°C° 0 mm 3 mps 726 mmHg 66%
    01:00 +4°C° 0 mm 4 mps 727 mmHg 64%
    02:00 +4°C° 0 mm 4 mps 727 mmHg 63%
    03:00 +4°C° 0 mm 4 mps 728 mmHg 63%
    04:00 +4°C° 0 mm 4 mps 728 mmHg 62%
    05:00 +4°C° 0 mm 4 mps 729 mmHg 61%
    06:00 +3°C° 0 mm 4 mps 730 mmHg 60%
    07:00 +3°C° 0 mm 4 mps 731 mmHg 60%
    08:00 +4°C° 0 mm 4 mps 732 mmHg 56%
    09:00 +5°C° 0 mm 4 mps 732 mmHg 52%
    10:00 +5°C° 0 mm 4 mps 733 mmHg 47%
    11:00 +6°C° 0 mm 4 mps 733 mmHg 43%
    12:00 +7°C° 0 mm 4 mps 733 mmHg 39%
    13:00 +8°C° 0 mm 5 mps 733 mmHg 35%
    14:00 +7°C° 0 mm 4 mps 733 mmHg 38%
    15:00 +7°C° 0 mm 3 mps 732 mmHg 40%
    16:00 +7°C° 0 mm 2 mps 732 mmHg 43%
    17:00 +6°C° 0 mm 2 mps 732 mmHg 44%
    18:00 +4°C° 0 mm 2 mps 732 mmHg 45%
    19:00 +3°C° 0 mm 2 mps 733 mmHg 46%
    20:00 +3°C° 0 mm 2 mps 732 mmHg 44%
    21:00 +3°C° 0 mm 2 mps 732 mmHg 42%
    22:00 +2°C° 0 mm 2 mps 732 mmHg 40%
    23:00 +2°C° 0 mm 2 mps 732 mmHg 39%

    Tomorrow, 11 December, Wednesday

    Time Temperature Precipitation Wind Pressure Humidity
    00:00 +2°C° 0 mm 2 mps 732 mmHg 38%
    01:00 +2°C° 0 mm 2 mps 732 mmHg 38%
    02:00 +2°C° 0 mm 2 mps 731 mmHg 38%
    03:00 +3°C° 0 mm 1 mps 731 mmHg 38%
    04:00 +3°C° 0 mm 1 mps 730 mmHg 39%
    05:00 +3°C° 0 mm 1 mps 729 mmHg 40%
    06:00 +3°C° 0 mm 1 mps 729 mmHg 41%
    07:00 +3°C° 0 mm 1 mps 729 mmHg 41%
    08:00 +4°C° 0 mm 1 mps 728 mmHg 41%
    09:00 +4°C° 0 mm 1 mps 728 mmHg 41%
    10:00 +4°C° 0 mm 0 mps 728 mmHg 41%
    11:00 +5°C° 0 mm 0 mps 727 mmHg 40%
    12:00 +5°C° 0 mm 0 mps 726 mmHg 40%
    13:00 +6°C° 0 mm 0 mps 725 mmHg 40%
    14:00 +5°C° 0 mm 0 mps 724 mmHg 44%
    15:00 +5°C° 0 mm 0 mps 724 mmHg 47%
    16:00 +4°C° 0 mm 0 mps 723 mmHg 51%
    17:00 +4°C° 0.1 mm 0 mps 723 mmHg 53%
    18:00 +4°C° 0.1 mm 0 mps 723 mmHg 55%
    19:00 +3°C° 0.1 mm 0 mps 723 mmHg 57%
    20:00 +3°C° 0.2 mm 0 mps 723 mmHg 59%
    21:00 +3°C° 0.2 mm 0 mps 723 mmHg 62%
    22:00 +3°C° 0.2 mm 0 mps 722 mmHg 64%
    23:00 +3°C° 0.3 mm 0 mps 722 mmHg 70%

    Day after tomorrow, 12 December, Thursday

    Time Temperature Precipitation Wind Pressure Humidity
    00:00 +3°C° 0.3 mm 0 mps 722 mmHg 77%
    01:00 +3°C° 0.3 mm 1 mps 721 mmHg 83%
    02:00 +3°C° 0.2 mm 1 mps 721 mmHg 84%
    03:00 +3°C° 0.2 mm 1 mps 720 mmHg 85%
    04:00 +3°C° 0.2 mm 1 mps 720 mmHg 86%
    05:00 +3°C° 0 mm 1 mps 720 mmHg 87%
    06:00 +2°C° 0 mm 0 mps 721 mmHg 87%
    07:00 +2°C° 0 mm 0 mps 721 mmHg 88%
    08:00 +2°C° 0 mm 0 mps 721 mmHg 84%
    09:00 +2°C° 0 mm 0 mps 722 mmHg 80%
    10:00 +4°C° 0 mm 1 mps 722 mmHg 77%
    11:00 +4°C° 0 mm 1 mps 722 mmHg 74%
    12:00 +5°C° 0 mm 1 mps 722 mmHg 71%
    13:00 +6°C° 0 mm 1 mps 721 mmHg 68%
    14:00 +5°C° 0 mm 1 mps 721 mmHg 71%
    15:00 +4°C° 0 mm 0 mps 721 mmHg 74%
    16:00 +3°C° 0 mm 0 mps 721 mmHg 78%
    17:00 +2°C° 0 mm 0 mps 721 mmHg 78%
    18:00 +3°C° 0 mm 1 mps 721 mmHg 79%
    19:00 +2°C° 0 mm 1 mps 720 mmHg 79%
    20:00 +2°C° 0 mm 1 mps 720 mmHg 77%
    21:00 +1°C° 0 mm 1 mps 719 mmHg 76%
    22:00 +1°C° 0 mm 1 mps 719 mmHg 74%
    23:00 +1°C° 0 mm 1 mps 718 mmHg 73%

    13 December, Friday

    Time Temperature Precipitation Wind Pressure Humidity
    00:00 +1°C° 0 mm 1 mps 717 mmHg 71%
    01:00 +1°C° 0 mm 1 mps 717 mmHg 69%
    02:00 +1°C° 0 mm 1 mps 716 mmHg 69%
    03:00 +2°C° 0 mm 1 mps 715 mmHg 70%
    04:00 +2°C° 0 mm 1 mps 714 mmHg 70%
    05:00 +2°C° 0.7 mm 1 mps 714 mmHg 78%
    06:00 +1°C° 0.7 mm 1 mps 713 mmHg 86%
    07:00 +1°C° 0.7 mm 1 mps 712 mmHg 94%
    08:00 +1°C° 0.9 mm 1 mps 712 mmHg 93%
    09:00 +1°C° 0.9 mm 1 mps 711 mmHg 92%
    10:00 +2°C° 0.9 mm 1 mps 711 mmHg 92%
    11:00 +2°C° 0.2 mm 1 mps 710 mmHg 90%
    12:00 +3°C° 0.2 mm 1 mps 710 mmHg 88%
    13:00 +3°C° 0.2 mm 1 mps 709 mmHg 86%
    14:00 +3°C° 0 mm 1 mps 709 mmHg 87%
    15:00 +3°C° 0 mm 1 mps 710 mmHg 88%
    16:00 +2°C° 0 mm 2 mps 710 mmHg 89%
    17:00 +1°C° 0 mm 2 mps 711 mmHg 86%
    18:00 +1°C° 0 mm 2 mps 711 mmHg 84%
    19:00 0°C° 0 mm 3 mps 712 mmHg 82%
    20:00 0°C° 0 mm 3 mps 713 mmHg 78%
    21:00 0°C° 0 mm 3 mps 714 mmHg 74%
    22:00 0°C° 0 mm 3 mps 715 mmHg 71%
    23:00 0°C° 0 mm 3 mps 716 mmHg 69%

    14 December, Saturday

    Time Temperature Precipitation Wind Pressure Humidity
    00:00 0°C° 0 mm 3 mps 716 mmHg 68%
    01:00 0°C° 0 mm 3 mps 717 mmHg 67%
    02:00 0°C° 0.1 mm 3 mps 717 mmHg 69%
    03:00 0°C° 0.1 mm 3 mps 717 mmHg 71%
    04:00 0°C° 0.1 mm 3 mps 717 mmHg 74%
    05:00 +1°C° 0 mm 2 mps 718 mmHg 74%
    06:00 +1°C° 0 mm 2 mps 718 mmHg 74%
    07:00 +1°C° 0 mm 2 mps 718 mmHg 75%
    08:00 +3°C° 0 mm 1 mps 719 mmHg 73%
    09:00 +5°C° 0 mm 1 mps 719 mmHg 71%
    10:00 +6°C° 0 mm 1 mps 720 mmHg 69%
    11:00 +6°C° 0 mm 1 mps 720 mmHg 66%
    12:00 +7°C° 0 mm 1 mps 720 mmHg 64%
    13:00 +8°C° 0 mm 1 mps 720 mmHg 62%
    14:00 +7°C° 0 mm 1 mps 720 mmHg 65%
    15:00 +7°C° 0 mm 1 mps 721 mmHg 68%
    16:00 +6°C° 0 mm 1 mps 721 mmHg 71%
    17:00 +6°C° 0 mm 1 mps 721 mmHg 72%
    18:00 +4°C° 0 mm 0 mps 722 mmHg 73%
    19:00 +3°C° 0 mm 0 mps 722 mmHg 74%
    20:00 +3°C° 0 mm 0 mps 723 mmHg 75%
    21:00 +3°C° 0 mm 0 mps 723 mmHg 76%
    22:00 +3°C° 0 mm 0 mps 723 mmHg 77%
    23:00 +3°C° 0 mm 0 mps 724 mmHg 78%

    15 December, Sunday

    Time Temperature Precipitation Wind Pressure Humidity
    00:00 +2°C° 0 mm 0 mps 724 mmHg 78%
    01:00 +2°C° 0 mm 0 mps 724 mmHg 79%
    02:00 +2°C° 0 mm 0 mps 724 mmHg 79%
    03:00 +2°C° 0 mm 0 mps 724 mmHg 80%
    04:00 +2°C° 0 mm 0 mps 724 mmHg 80%
    05:00 +2°C° 0 mm 0 mps 725 mmHg 80%
    06:00 +2°C° 0 mm 0 mps 725 mmHg 79%
    07:00 +2°C° 0 mm 0 mps 725 mmHg 79%
    08:00 +3°C° 0 mm 0 mps 725 mmHg 77%
    09:00 +5°C° 0 mm 1 mps 726 mmHg 76%
    10:00 +5°C° 0 mm 1 mps 726 mmHg 75%
    11:00 +6°C° 0 mm 1 mps 726 mmHg 75%
    12:00 +6°C° 0 mm 1 mps 726 mmHg 75%
    13:00 +5°C° 0 mm 0 mps 726 mmHg 76%
    14:00 +5°C° 0 mm 0 mps 726 mmHg 77%
    15:00 +5°C° 0 mm 0 mps 726 mmHg 78%
    16:00 +5°C° 0 mm 0 mps 727 mmHg 79%
    17:00 +5°C° 0 mm 0 mps 727 mmHg 79%
    18:00 +4°C° 0 mm 0 mps 728 mmHg 80%
    19:00 +4°C° 0 mm 0 mps 728 mmHg 80%
    20:00 +4°C° 0 mm 0 mps 728 mmHg 80%
    21:00 +5°C° 0 mm 0 mps 729 mmHg 81%
    22:00 +5°C° 0 mm 0 mps 729 mmHg 81%
    23:00 +5°C° 0 mm 0 mps 730 mmHg 82%
    Show more